Location: Peebles
(55.6412°N, 3.1714°W)
Time: 16:38:36
(UTC+01:00)

Cosmos 1934 Rocket - Pass Details

Date: 05 February 2022
Orbit: 938 x 999 km, 83.0° (Epoch: 25 May)

Event Time Altitude Azimuth Distance (km) Brightness Sun altitude
Rises 19:35:34 0° 338° (NNW) 3,627 7.3 -22.6°
Reaches altitude 10° 19:40:04 10° 308° (NW) 2,668 7.1 -23.3°
Maximum altitude 19:41:53 11° 290° (WNW) 2,558 7.2 -23.5°
Drops below altitude 10° 19:43:42 10° 272° (W) 2,659 7.4 -23.8°
Sets 19:48:11 0° 241° (WSW) 3,596 7.8 -24.4°
